Auction Buyer/Seller Tools

Misspell and Typo search

Find more items on eBay
This tool allows you to find more on eBay using several typo methods.
You can type a keyword in the field below. If you are getting too many unwanted results, then you can type unwanted keywords in "Exclude" field, this way those will be excluded from your results.

Search Keywords should be used as one single keyword or a short phrase (without quotes).
Exclude Keywords must be separated by Space or Comma.
Search Keywords:
Exclude Keywords:  
Include original key words too
Do not misspell
Digital Delivery items only
Free Shipping items only
Gallery items only
"Get It Fast" items only
Items with "Gift" option only
Items with quantity more than 1
Items with picture only
Current bid to
Bid count to
Condition:
Seller:
Country:
Item #TitleBidsCur.BidTime Left
192411353892 New Acer Aspire 7520-6A1G08Mi Charger Adapter Lpatop Power Supply 0 GBP 15.29 08:45:31
323811085852 Gateway MA7 Labtop Black - AS-IS (IL) 0 GBP 19.56 13:18:16
303133086282 6225 Handheld Foldable Rechargeable Stepless Speed Mini Labtop Desk USB Fan 0 GBP 6.99 14:05:42
133030105937 1D1C Handheld Summer Foldable Rechargeable Mini Labtop Desk Cooling USB Fan 0 GBP 8.78 16:03:35
113696215172 New 6 Cell Laptoop Battery for IBM Lenovo Thinkpad X200 X200s 42T4534 42T4650 0 GBP 16.68 1d 05:56:30
192068901742 Delta Adapter For Packard Bell EASYNOTE TE11-HC-G50 Lpatop Power Supply 1 GBP 11.93 1d 11:55:38
192068901743 Delta Adapter For Packard Bell EASYNOTE TS11-SB-042GE Lpatop Power Supply 0 GBP 11.93 1d 11:55:38
192068901744 Delta Adapter For Packard Bell EASYNOTE TS44-HR-040NL Lpatop Power Supply 0 GBP 11.93 1d 11:55:38
192068901745 Delta Adapter For Packard Bell EASYNOTE TS11-SB-666GE Lpatop Power Supply 0 GBP 11.93 1d 11:55:38
192068901746 Delta Adapter For Packard Bell EASYNOTE TS13-HR-025GE Lpatop Power Supply 0 GBP 11.93 1d 11:55:38
201771320479 Delta Adapter For Packard Bell EASYNOTE TS13-HR-522RU Lpatop Power Supply 0 GBP 11.93 1d 11:55:38
201771320487 Delta Adapter For Packard Bell EASYNOTE TE11-HC-011FR Lpatop Power Supply 0 GBP 11.93 1d 11:55:38
201771320488 Delta Adapter For Packard Bell EASYNOTE TS11-HR-120IL Lpatop Power Supply 0 GBP 11.93 1d 11:55:38
201771320492 Delta Adapter For Packard Bell EASYNOTE TS11-HR-965UK Lpatop Power Supply 0 GBP 11.93 1d 11:55:38
192068901753 Delta Adapter For Packard Bell EASYNOTE TS13-SB-125UK Lpatop Power Supply 1 GBP 11.93 1d 11:55:40
192068901754 Delta Adapter For Packard Bell EASYNOTE TS44-SB-833RU Lpatop Power Supply 0 GBP 11.93 1d 11:55:40
201771320547 Delta Adapter For Packard Bell EASYNOTE TS11-HR-581RU Lpatop Power Supply 1 GBP 11.93 1d 11:55:40
201771320549 Delta Adapter For Packard Bell EASYNOTE TS44-SB-041NL Lpatop Power Supply 0 GBP 11.93 1d 11:55:40
201771320551 Delta Adapter For Packard Bell EASYNOTE TS44-HR-3365NL Lpatop Power Supply 0 GBP 11.93 1d 11:55:40
201771320553 Delta Adapter For Packard Bell EASYNOTE TS11-SB-215UK Lpatop Power Supply 0 GBP 11.93 1d 11:55:40
201771320554 Delta Adapter For Packard Bell EASYNOTE TS44-HR-166GE Lpatop Power Supply 0 GBP 11.93 1d 11:55:40
192068901764 Delta Adapter For Packard Bell EASYNOTE TSX62-HR-200FR Lpatop Power Supply 0 GBP 11.93 1d 11:55:41
192068901766 Delta Adapter For Packard Bell EASYNOTE TS44-HR-044FR Lpatop Power Supply 0 GBP 11.93 1d 11:55:41
192068901767 Delta Adapter For Packard Bell EASYNOTE TS11-SB-880RU Lpatop Power Supply 0 GBP 11.93 1d 11:55:41
201771320609 Delta Adapter For Packard Bell EASYNOTE TS11-HR-002FR Lpatop Power Supply 0 GBP 11.93 1d 11:55:41
201771320615 Delta Adapter For Packard Bell EASYNOTE TE11-HC-060RU Lpatop Power Supply 0 GBP 11.93 1d 11:55:41
201771320620 Delta Adapter For Packard Bell EASYNOTE TS13-HR-185UK Lpatop Power Supply 0 GBP 11.93 1d 11:55:41
201771320624 Delta Adapter For Packard Bell EASYNOTE TSX62-HR-591RU Lpatop Power Supply 0 GBP 11.93 1d 11:55:41
201771320625 Delta Adapter For Packard Bell EASYNOTE TS11-HR-975UK Lpatop Power Supply 0 GBP 11.93 1d 11:55:41
201771320632 Delta Adapter For Packard Bell EASYNOTE TS13-HR-590RU Lpatop Power Supply 0 GBP 11.93 1d 11:55:41
201771320643 Delta Adapter For Packard Bell EASYNOTE TS11-HR-141NC Lpatop Power Supply 0 GBP 11.93 1d 11:55:41
201771320645 Delta Adapter For Packard Bell EASYNOTE TS11-SB-085GE Lpatop Power Supply 0 GBP 11.93 1d 11:55:41
201771320699 Delta Adapter For Packard Bell EASYNOTE TS13-SB-1465NL Lpatop Power Supply 0 GBP 11.93 1d 11:55:42
192068901780 Delta Adapter For Packard Bell EASYNOTE TS11-HR-723UK Lpatop Power Supply 0 GBP 11.93 1d 11:55:43
192068901781 Delta Adapter For Packard Bell EASYNOTE TS11-SB-225UK Lpatop Power Supply 0 GBP 11.93 1d 11:55:43
192068901782 Delta Adapter For Packard Bell EASYNOTE TS44-SB-125UK Lpatop Power Supply 0 GBP 11.93 1d 11:55:43
192068901783 Delta Adapter For Packard Bell EASYNOTE TS44-HR-195UK Lpatop Power Supply 0 GBP 11.93 1d 11:55:43
201771320729 Delta Adapter For Packard Bell EASYNOTE TS44-SB-882RU Lpatop Power Supply 0 GBP 11.93 1d 11:55:43
201771320754 Delta Adapter For Packard Bell EASYNOTE TS44-HR-450FR Lpatop Power Supply 0 GBP 11.93 1d 11:55:43
192068901788 Delta Adapter For Packard Bell EASYNOTE TS44-HR-060FR Lpatop Power Supply 0 GBP 11.93 1d 11:55:44
192068901789 Delta Adapter For Packard Bell EASYNOTE TS13-HR-965UK Lpatop Power Supply 0 GBP 11.93 1d 11:55:44
192068901791 Delta Adapter For Packard Bell EASYNOTE TSX62-HR-593RU Lpatop Power Supply 0 GBP 11.93 1d 11:55:44
192068901792 Delta Adapter For Packard Bell EASYNOTE TS11-SB-882RU Lpatop Power Supply 0 GBP 11.93 1d 11:55:44
201771320779 Delta Adapter For Packard Bell EASYNOTE TSX62-HR-350SP Lpatop Power Supply 0 GBP 11.93 1d 11:55:44
201771320789 Delta Adapter For Packard Bell EASYNOTE TS13-HR-197GE Lpatop Power Supply 0 GBP 11.93 1d 11:55:44
201771320801 Delta Adapter For Packard Bell EASYNOTE TE11-HC-150GE Lpatop Power Supply 0 GBP 11.93 1d 11:55:44
201771320804 Delta Adapter For Packard Bell EASYNOTE TS11-HR-012GE Lpatop Power Supply 0 GBP 11.93 1d 11:55:44
201771320808 Delta Adapter For Packard Bell EASYNOTE TS11-HR-145GE Lpatop Power Supply 0 GBP 11.93 1d 11:55:44
201771320842 Delta Adapter For Packard Bell EASYNOTE TS11-HR-986UK Lpatop Power Supply 0 GBP 11.93 1d 11:55:44
192068901798 Delta Adapter For Packard Bell EASYNOTE TS11-SB-250GE Lpatop Power Supply 0 GBP 11.93 1d 11:55:45
192068901799 Delta Adapter For Packard Bell EASYNOTE TS13-SB-451HG Lpatop Power Supply 0 GBP 11.93 1d 11:55:45
192068901802 Delta Adapter For Packard Bell EASYNOTE TS11-SB-104FR Lpatop Power Supply 0 GBP 11.93 1d 11:55:45
201771320904 Delta Adapter For Packard Bell EASYNOTE TS11-HR-823UK Lpatop Power Supply 0 GBP 11.93 1d 11:55:45
192068901806 Delta Adapter For Packard Bell EASYNOTE TS44-HR-196GE Lpatop Power Supply 0 GBP 11.93 1d 11:55:46
192068901809 Delta Adapter For Packard Bell EASYNOTE TSX62-HR SERIES Lpatop Power Supply 0 GBP 11.93 1d 11:55:46
192068901814 Delta Adapter For Packard Bell EASYNOTE TS13-SB-030UK Lpatop Power Supply 0 GBP 11.93 1d 11:55:46
192068901815 Delta Adapter For Packard Bell EASYNOTE TS44-HR-595UK Lpatop Power Supply 0 GBP 11.93 1d 11:55:46
201771320921 Delta Adapter For Packard Bell EASYNOTE TS44-SB-225UK Lpatop Power Supply 0 GBP 11.93 1d 11:55:46
192068901817 Delta Adapter For Packard Bell EASYNOTE TS11-HR-158GE Lpatop Power Supply 0 GBP 11.93 1d 11:55:47
192068901819 Delta Adapter For Packard Bell EASYNOTE TS11-HR-039UK Lpatop Power Supply 0 GBP 11.93 1d 11:55:47
192068901821 Delta Adapter For Packard Bell EASYNOTE TS13-HR-240GE Lpatop Power Supply 0 GBP 11.93 1d 11:55:47
201771321012 Delta Adapter For Packard Bell EASYNOTE TS44-HR-128GE Lpatop Power Supply 0 GBP 11.93 1d 11:55:47
201771321034 Delta Adapter For Packard Bell EASYNOTE TS13-HR-004FR Lpatop Power Supply 0 GBP 11.93 1d 11:55:47
201771321047 Delta Adapter For Packard Bell EASYNOTE TE11-HC-170RU Lpatop Power Supply 0 GBP 11.93 1d 11:55:47
201771321053 Delta Adapter For Packard Bell EASYNOTE TSX62-HR-688CZ Lpatop Power Supply 0 GBP 11.93 1d 11:55:47
201771321064 Delta Adapter For Packard Bell EASYNOTE TS11-SB SERIES Lpatop Power Supply 0 GBP 11.93 1d 11:55:47
192068901824 Delta Adapter For Packard Bell EASYNOTE TSX62-HR-380RU Lpatop Power Supply 0 GBP 11.93 1d 11:55:48
201771321130 Delta Adapter For Packard Bell EASYNOTE TS11-SB-125UK Lpatop Power Supply 0 GBP 11.93 1d 11:55:48
201771321135 Delta Adapter For Packard Bell EASYNOTE TS11-HR-844UK Lpatop Power Supply 0 GBP 11.93 1d 11:55:48
201771321148 Delta Adapter For Packard Bell EASYNOTE TS11-SB-401RU Lpatop Power Supply 0 GBP 11.93 1d 11:55:48
192068901828 Delta Adapter For Packard Bell EASYNOTE TS13-SB-612RU Lpatop Power Supply 0 GBP 11.93 1d 11:55:49
192068901830 Delta Adapter For Packard Bell EASYNOTE TS44-SB-451HG Lpatop Power Supply 0 GBP 11.93 1d 11:55:49
192068901832 Delta Adapter For Packard Bell EASYNOTE TSX62-HR-010FR Lpatop Power Supply 0 GBP 11.93 1d 11:55:49
192068901833 Delta Adapter For Packard Bell EASYNOTE TS13-SB-041NL Lpatop Power Supply 0 GBP 11.93 1d 11:55:49
192068901834 Delta Adapter For Packard Bell EASYNOTE TS44-SB SERIES Lpatop Power Supply 0 GBP 11.93 1d 11:55:49
201771321186 Delta Adapter For Packard Bell EASYNOTE TS44-HR-198GE Lpatop Power Supply 0 GBP 11.93 1d 11:55:49
192068901839 Delta Adapter For Packard Bell EASYNOTE TE11-HC-823CH Lpatop Power Supply 0 GBP 11.93 1d 11:55:50
192068901840 Delta Adapter For Packard Bell EASYNOTE TS13-HR-322CZ Lpatop Power Supply 0 GBP 11.93 1d 11:55:50
192068901843 Delta Adapter For Packard Bell EASYNOTE TS11-SB-006NCD Lpatop Power Supply 0 GBP 11.93 1d 11:55:50
201771321252 Delta Adapter For Packard Bell EASYNOTE TS44-HR-151GE Lpatop Power Supply 0 GBP 11.93 1d 11:55:50
201771321255 Delta Adapter For Packard Bell EASYNOTE TS13-HR-011IL Lpatop Power Supply 0 GBP 11.93 1d 11:55:50
201771321261 Delta Adapter For Packard Bell EASYNOTE TS11-HR-185UK Lpatop Power Supply 0 GBP 11.93 1d 11:55:50
201771321295 Delta Adapter For Packard Bell EASYNOTE TS11-HR-040UK Lpatop Power Supply 0 GBP 11.93 1d 11:55:50
192068901844 Delta Adapter For Packard Bell EASYNOTE TSX62-HR-527RU Lpatop Power Supply 0 GBP 11.93 1d 11:55:51
192068901847 Delta Adapter For Packard Bell EASYNOTE TS11-SB-162GE Lpatop Power Supply 0 GBP 11.93 1d 11:55:51
192068901850 Delta Adapter For Packard Bell EASYNOTE TS13-SB-882RU Lpatop Power Supply 0 GBP 11.93 1d 11:55:51
192068901851 Delta Adapter For Packard Bell EASYNOTE TS11-HR-885SA Lpatop Power Supply 0 GBP 11.93 1d 11:55:51
201771321389 Delta Adapter For Packard Bell EASYNOTE TS11-SB-611RU Lpatop Power Supply 0 GBP 11.93 1d 11:55:51
192068901863 Delta Adapter For Packard Bell EASYNOTE TS44-HR-205GE Lpatop Power Supply 0 GBP 11.93 1d 11:55:52
192068901864 Delta Adapter For Packard Bell EASYNOTE TS44-SB-811RU Lpatop Power Supply 0 GBP 11.93 1d 11:55:52
192068901865 Delta Adapter For Packard Bell EASYNOTE TS13-SB-811RU Lpatop Power Supply 0 GBP 11.93 1d 11:55:52
201771321406 Delta Adapter For Packard Bell EASYNOTE TSX62-HR-095FR Lpatop Power Supply 0 GBP 11.93 1d 11:55:52
201771321454 Delta Adapter For Packard Bell EASYNOTE TS44-SB-002NL Lpatop Power Supply 0 GBP 11.93 1d 11:55:52
201771321554 Delta Adapter For Packard Bell EASYNOTE TSX62-HR-590RU Lpatop Power Supply 0 GBP 11.93 1d 11:55:53
201771321580 Delta Adapter For Packard Bell EASYNOTE TS44-HR-001GR Lpatop Power Supply 0 GBP 11.93 1d 11:55:54
201771321890 Delta Adapter For Packard Bell EASYNOTE TS44-HR-025GE Lpatop Power Supply 0 GBP 11.93 1d 11:55:57
192068901919 Delta Adapter For Packard Bell EASYNOTE TS44-HR-035UK Lpatop Power Supply 0 GBP 11.93 1d 11:56:00
201771322475 Delta Adapter For Packard Bell EASYNOTE TS44-HR-038UK Lpatop Power Supply 0 GBP 11.93 1d 11:56:03
192068904681 65W AJP Adaptor For Packard Bell EASYNOTE TS44-SB-041NL Lpatop Power Supply 0 GBP 12.49 1d 12:02:46
192068904682 65W AJP Adaptor For Packard Bell EASYNOTE TS11-HR-986UK Lpatop Power Supply 0 GBP 12.49 1d 12:02:46
Tools For Buyer
Misspelled and Typo Search
Zero Bids Search
Images Search


Find great deals on laptop at Shopzilla.com!
ads from Shopzilla,Inc